Dewpoint
70 70 66 69 68 67 67 68 69 73 73 71 72 71 72 71 71 70 71 70 70 72
70 70 70 69 70 68 70 69 68 68 68 71 72 72 73 70 70 72 71 71 71 71
70 70 70 71 69 70 70 68 69 70 69 68 70 72 72 71 71 70 70 71 71 71
69 71 71 71 71 71 71 67 70 70 69 65 69 71 72 71 71 71 69 70 71 70
68 69 70 70 70 71 70 71 71 71 71 71 72 72 72 71 70 71 71 69 71 71
68 69 69 70 70 70 72 71 71 71 71 72 71 72 72 71 72 72 71 72 72 72
68 69 68 70 70 70 71 71 71 71 72 72 72 72 72 71 71 72 72 72 73 73
70 68 69 69 71 71 71 72 72 72 71 72 72 71 72 72 72 72 71 72 72 72
71 71 71 72 72 72 72 73 71 72 72 72 71 68 68 70 71 71 71 71 72 72
71 71 71 72 71 70 70 70 70 71 71 71 71 68 67 68 68 69 71 71 71 71
71 71 71 71 70 70 70 70 70 70 71 71 71 68 66 67 68 69 70 70 71 70
71 71 71 70 71 71 70 70 70 70 70 70 71 67 64 66 68 69 70 70 70 70
71 71 71 70 70 70 70 70 71 70 70 69 70 62 62 64 67 68 69 70 69 63
71 71 70 70 70 69 70 69 68 68 69 69 66 63 60 61 66 69 69 68 68 64
Lifted_Index
-3 -3 -3 -3 -4 -3 -3 -3 -4 -5 -5 -5 -5 -5 -5 -5 -5 -5 -5 -5 -4 -4
-4 -4 -4 -4 -4 -4 -4 -4 -4 -4 -4 -4 -5 -5 -5 -5 -5 -5 -5 -5 -5 -4
-4 -4 -4 -5 -5 -5 -5 -4 -4 -4 -3 -4 -4 -5 -5 -5 -5 -5 -5 -5 -4 -4
-5 -5 -5 -5 -5 -5 -5 -4 -4 -4 -4 -4 -4 -5 -5 -5 -5 -5 -4 -4 -4 -4
-5 -5 -5 -5 -5 -5 -5 -5 -4 -4 -4 -4 -5 -5 -5 -5 -5 -5 -4 -4 -4 -5
-5 -5 -5 -5 -5 -5 -5 -5 -5 -5 -5 -5 -5 -5 -5 -4 -4 -5 -4 -5 -5 -5
-5 -5 -6 -5 -5 -5 -5 -5 -5 -4 -5 -5 -5 -5 -5 -5 -4 -4 -5 -5 -5 -5
-5 -5 -5 -6 -6 -6 -5 -5 -5 -5 -5 -5 -5 -5 -5 -5 -5 -5 -5 -5 -5 -5
-4 -4 -5 -5 -6 -6 -6 -5 -5 -5 -5 -5 -5 -5 -5 -5 -5 -4 -4 -4 -4 -4
-4 -4 -4 -5 -5 -5 -5 -5 -5 -5 -5 -5 -5 -5 -5 -5 -4 -4 -4 -4 -4 -4
-4 -4 -4 -4 -5 -5 -4 -4 -4 -4 -4 -4 -4 -4 -4 -4 -4 -3 -3 -3 -3 -3
-5 -4 -4 -4 -4 -4 -4 -4 -3 -3 -3 -4 -4 -4 -4 -3 -3 -3 -3 -3 -3 -2
-5 -5 -4 -4 -4 -3 -3 -3 -3 -3 -3 -3 -3 -3 -3 -3 -2 -2 -2 -2 -2 -2
-6 -5 -4 -4 -3 -3 -3 -3 -3 -3 -3 -3 -3 -3 -2 -2 -2 -2 -2 -2 -2 -2